Regional Weather Roundup
Issued by NWS Nashville, TN

Home | Current Version | Previous Version | Text Only | Print | Product List | Glossary On
Versions: 1 2 3 4 5 6 7 8 9 10 11 12 13 14 15 16 17 18 19 20 21 22 23 24 25 26 27 28 29 30 31 32 33 34 35 36 37 38 39 40 41 42 43 44 45 46 47 48 49 50
000
ASUS44 KOHX 250410
RWROHX
MIDDLE TENNESSEE HOURLY WEATHER ROUNDUP
NATIONAL WEATHER SERVICE NASHVILLE TN
1000 PM CST FRI NOV 24 2017

NOTE: "FAIR" INDICATES FEW OR NO CLOUDS BELOW 12,000 FEET WITH
NO SIGNIFICANT WEATHER AND/OR OBSTRUCTIONS TO VISIBILITY.

* THESE REPORTS ARE NOT UNDER NWS QUALITY CONTROL AND MAY NOT
  REPORT WEATHER SUCH AS PRECIPITATION AND FOG.


TNZ005>011-023>034-057-059-062>066-078-080-250500
...NORTHERN MIDDLE TENNESSEE...

CITY           SKY/WX    TMP DP  RH WIND       PRES   REMARKS
CLARKSVILLE    CLEAR     52  26  36 S12       29.85S
CROSSVILLE     CLEAR     46  37  71 VRB5      29.94F
GALLATIN       CLEAR     52  34  50 VRB5      29.91S
DICKSON          N/A     49  22  34 S10       29.87S
LEBANON        CLEAR     52  35  52 S9        29.87S
NASHVILLE      CLEAR     47  32  56 S8        29.89F
PORTLAND       CLEAR     52  30  43 S14       29.85S
SMYRNA         CLEAR     44  34  67 CALM      29.91F
SPARTA         CLEAR     41  37  87 S6        29.91F
SPRINGFIELD    CLEAR     52  25  35 S12       29.83F
WEST NASHVILLE CLEAR     48  28  46 S3        29.86F
$$
TNZ056-058-060-061-075>077-079-093>097-250500
...SOUTHERN MIDDLE TENNESSEE...

CITY           SKY/WX    TMP DP  RH WIND       PRES   REMARKS
COLUMBIA       CLEAR     48  27  43 S6        29.89S
FAYETTEVILLE   CLEAR     48  41  76 S6        29.94S
MCMINNVILLE    CLEAR     46  39  76 SW6       29.93S
MURFREESBORO   CLEAR     47  35  63 S6        29.90F
PULASKI        CLEAR     36  34  93 CALM      29.94S
SHELBYVILLE    CLEAR     48  37  66 S6        29.92F
TULLAHOMA      CLEAR     45  39  81 S6G14     29.93S
WINCHESTER     CLEAR     37  36  93 S3        29.95F
$$


...KEY TO REMARKS...
VSB - VISIBILITY IN MILES
WCI - WIND CHILL INDEX
HX  - HEAT INDEX




USA.gov is the U.S. government's official web portal to all federal, state and local government web resources and services.